SAS295 EKCH-ESSA

Flight info

Callsign SAS295
Flight time 0h 55m
Altitude 39000
Route KEMAX N851 ROXEN DCT MIKNA N851 PELUP Z226 NILUG
Aircraft A20N/M-SDE2E3FGHIRWXY/LB1

Departure

Time 2026-05-04 17:49
Airport Copenhagen Kastrup Airport (EKCH)

Arrival

Time 2026-05-04 18:44
Airport Stockholm-Arlanda Airport (ESSA)
Time Latitude Longitude Altitude Speed Heading
2026-05-04 17:19 55.62732 12.65251 24 ft 0 kts
2026-05-04 17:36 55.62729 12.65250 23 ft 2 kts
2026-05-04 17:36 55.62716 12.65248 28 ft 2 kts
2026-05-04 17:36 55.62704 12.65246 25 ft 2 kts 359°
2026-05-04 17:37 55.62691 12.65248 27 ft 2 kts 340°
2026-05-04 17:37 55.62679 12.65258 24 ft 2 kts 324°
2026-05-04 17:37 55.62669 12.65271 28 ft 2 kts 324°
2026-05-04 17:37 55.62657 12.65287 28 ft 2 kts 326°
2026-05-04 17:38 55.62644 12.65300 29 ft 2 kts 334°
2026-05-04 17:38 55.62630 12.65311 28 ft 2 kts 345°
2026-05-04 17:38 55.62616 12.65316 27 ft 2 kts 352°
2026-05-04 17:38 55.62601 12.65319 28 ft 2 kts 356°
2026-05-04 17:39 55.62586 12.65320 27 ft 0 kts 356°
2026-05-04 17:41 55.62591 12.65320 27 ft 4 kts 356°
2026-05-04 17:41 55.62635 12.65301 29 ft 8 kts 325°
2026-05-04 17:41 55.62640 12.65210 26 ft 9 kts 237°
2026-05-04 17:42 55.62581 12.65181 23 ft 10 kts 179°
2026-05-04 17:42 55.62527 12.65183 26 ft 13 kts 179°
2026-05-04 17:42 55.62425 12.65200 25 ft 17 kts 175°
2026-05-04 17:42 55.62306 12.65179 23 ft 17 kts 220°
2026-05-04 17:43 55.62292 12.65047 24 ft 12 kts 288°
2026-05-04 17:43 55.62335 12.64910 27 ft 10 kts 301°
2026-05-04 17:43 55.62342 12.64888 24 ft 1 kts 301°
2026-05-04 17:43 55.62352 12.64829 25 ft 8 kts 271°
2026-05-04 17:44 55.62331 12.64715 25 ft 12 kts 248°
2026-05-04 17:44 55.62295 12.64602 25 ft 0 kts 255°
2026-05-04 17:45 55.62290 12.64574 23 ft 7 kts 253°
2026-05-04 17:45 55.62262 12.64443 24 ft 15 kts 244°
2026-05-04 17:45 55.62166 12.64320 22 ft 19 kts 205°
2026-05-04 17:46 55.62032 12.64202 24 ft 24 kts 206°
2026-05-04 17:46 55.61875 12.64082 25 ft 26 kts 193°
2026-05-04 17:46 55.61778 12.64077 25 ft 0 kts 177°
2026-05-04 17:47 55.61775 12.64077 25 ft 0 kts 177°
2026-05-04 17:48 55.61740 12.64080 25 ft 9 kts 176°
2026-05-04 17:48 55.61667 12.64086 26 ft 11 kts 182°
2026-05-04 17:48 55.61598 12.64016 30 ft 14 kts 217°
2026-05-04 17:48 55.61357 12.63651 28 ft 81 kts 221°
2026-05-04 17:49 55.60787 12.62761 28 ft 135 kts 220°
2026-05-04 17:49 55.59965 12.61575 221 ft 161 kts 221°
2026-05-04 17:49 55.59057 12.60350 843 ft 161 kts 221°
2026-05-04 17:49 55.58202 12.59135 1665 ft 154 kts 223°
2026-05-04 17:50 55.57378 12.57894 2211 ft 162 kts 225°
2026-05-04 17:50 55.56492 12.56495 2604 ft 180 kts 225°
2026-05-04 17:50 55.55359 12.55337 3061 ft 204 kts 205°
2026-05-04 17:50 55.53943 12.54384 3451 ft 231 kts 203°
2026-05-04 17:51 55.52301 12.53691 4043 ft 257 kts 183°
2026-05-04 17:51 55.50511 12.54460 4911 ft 274 kts 154°
2026-05-04 17:51 55.49063 12.56693 5907 ft 284 kts 127°
2026-05-04 17:51 55.48289 12.59932 6864 ft 293 kts 99°
2026-05-04 17:52 55.48378 12.63530 7800 ft 298 kts 72°
2026-05-04 17:52 55.49331 12.66744 8751 ft 298 kts 46°
2026-05-04 17:52 55.50904 12.69091 9713 ft 298 kts 29°
2026-05-04 17:52 55.52695 12.71018 10459 ft 310 kts 26°
2026-05-04 17:53 55.54606 12.73004 10821 ft 335 kts 27°
2026-05-04 17:53 55.56640 12.75257 11274 ft 354 kts 29°
2026-05-04 17:53 55.58710 12.77703 12088 ft 361 kts 30°
2026-05-04 17:53 55.60793 12.80246 12933 ft 367 kts 31°
2026-05-04 17:54 55.62901 12.82856 13769 ft 373 kts 31°
2026-05-04 17:54 55.65037 12.85512 14508 ft 378 kts 31°
2026-05-04 17:54 55.67202 12.88206 15307 ft 382 kts 31°
2026-05-04 17:54 55.69386 12.90924 16067 ft 386 kts 31°
2026-05-04 17:55 55.71599 12.93678 16831 ft 390 kts 31°
2026-05-04 17:55 55.73834 12.96460 17577 ft 395 kts 31°
2026-05-04 17:55 55.76092 12.99274 18309 ft 399 kts 31°
2026-05-04 17:55 55.78377 13.02125 18968 ft 402 kts 31°
2026-05-04 17:56 55.80676 13.04998 19654 ft 405 kts 31°
2026-05-04 17:56 55.82991 13.07895 20314 ft 409 kts 31°
2026-05-04 17:56 55.85325 13.10819 20972 ft 412 kts 31°
2026-05-04 17:56 55.87678 13.13772 21636 ft 415 kts 31°
2026-05-04 17:57 55.90047 13.16749 22279 ft 419 kts 31°
2026-05-04 17:57 55.92439 13.19759 22910 ft 422 kts 31°
2026-05-04 17:57 55.94847 13.22794 23543 ft 426 kts 31°
2026-05-04 17:57 55.97277 13.25861 24053 ft 429 kts 31°
2026-05-04 17:58 55.99689 13.28911 24567 ft 432 kts 31°
2026-05-04 17:58 56.02151 13.32027 25086 ft 435 kts 31°
2026-05-04 17:58 56.04633 13.35175 25580 ft 439 kts 32°
2026-05-04 17:58 56.07133 13.38350 26062 ft 442 kts 32°
2026-05-04 17:59 56.09642 13.41554 26545 ft 445 kts 34°
2026-05-04 17:59 56.12061 13.45067 27016 ft 449 kts 36°
2026-05-04 17:59 56.16898 13.52294 27920 ft 455 kts 37°
2026-05-04 18:00 56.19338 13.55944 28354 ft 457 kts 37°
2026-05-04 18:00 56.21788 13.59609 28777 ft 460 kts 37°
2026-05-04 18:00 56.24257 13.63302 29180 ft 463 kts 37°
2026-05-04 18:00 56.26735 13.67014 29567 ft 465 kts 37°
2026-05-04 18:01 56.29228 13.70756 29961 ft 468 kts 37°
2026-05-04 18:01 56.31735 13.74527 30304 ft 470 kts 37°
2026-05-04 18:01 56.34251 13.78323 30631 ft 473 kts 37°
2026-05-04 18:02 56.39313 13.85980 31373 ft 476 kts 37°
2026-05-04 18:02 56.41815 13.89778 31813 ft 475 kts 37°
2026-05-04 18:02 56.44342 13.93619 32255 ft 474 kts 37°
2026-05-04 18:02 56.46862 13.97457 32681 ft 473 kts 37°
2026-05-04 18:03 56.49377 14.01293 33110 ft 473 kts 37°
2026-05-04 18:03 56.51890 14.05132 33517 ft 472 kts 37°
2026-05-04 18:03 56.54395 14.08966 33938 ft 471 kts 37°
2026-05-04 18:03 56.56899 14.12805 34246 ft 471 kts 37°
2026-05-04 18:04 56.59402 14.16648 34530 ft 472 kts 37°
2026-05-04 18:04 56.61907 14.20501 34806 ft 473 kts 37°
2026-05-04 18:04 56.66925 14.28241 35343 ft 474 kts 37°
2026-05-04 18:05 56.69442 14.32134 35597 ft 474 kts 37°
2026-05-04 18:05 56.71955 14.36029 35848 ft 475 kts 37°
2026-05-04 18:05 56.74469 14.39932 36103 ft 475 kts 37°
2026-05-04 18:05 56.76988 14.43849 36348 ft 476 kts 37°
2026-05-04 18:06 56.82021 14.51698 36826 ft 476 kts 37°
2026-05-04 18:06 56.84542 14.55640 37060 ft 477 kts 37°
2026-05-04 18:06 56.87060 14.59587 37293 ft 477 kts 37°
2026-05-04 18:07 56.89548 14.63492 37517 ft 477 kts 37°
2026-05-04 18:07 56.92068 14.67454 37741 ft 477 kts 37°
2026-05-04 18:07 56.94594 14.71433 37954 ft 478 kts 37°
2026-05-04 18:07 56.97111 14.75406 38160 ft 478 kts 37°
2026-05-04 18:08 56.99633 14.79393 38367 ft 478 kts 37°
2026-05-04 18:08 57.02151 14.83382 38554 ft 479 kts 37°
2026-05-04 18:08 57.04673 14.87385 38711 ft 479 kts 37°
2026-05-04 18:08 57.07190 14.91388 38851 ft 479 kts 37°
2026-05-04 18:09 57.17231 15.07430 38847 ft 478 kts 37°
2026-05-04 18:10 57.22246 15.15485 38840 ft 478 kts 37°
2026-05-04 18:10 57.27229 15.23520 38831 ft 479 kts 37°
2026-05-04 18:11 57.32245 15.31638 38820 ft 479 kts 37°
2026-05-04 18:11 57.37256 15.39780 38819 ft 479 kts 37°
2026-05-04 18:12 57.42272 15.47960 38812 ft 479 kts 37°
2026-05-04 18:12 57.47278 15.56155 38809 ft 480 kts 38°
2026-05-04 18:13 57.52287 15.64387 38813 ft 480 kts 38°
2026-05-04 18:14 57.59770 15.76743 38804 ft 481 kts 38°
2026-05-04 18:14 57.64774 15.85044 38800 ft 481 kts 38°
2026-05-04 18:15 57.74782 16.01744 38794 ft 482 kts 38°
2026-05-04 18:16 57.79783 16.10138 38788 ft 483 kts 38°
2026-05-04 18:16 57.84784 16.18565 38787 ft 483 kts 38°
2026-05-04 18:17 57.89790 16.27031 38638 ft 484 kts 38°
2026-05-04 18:17 57.92261 16.31223 38414 ft 484 kts 38°
2026-05-04 18:17 57.97254 16.39721 37851 ft 483 kts 38°
2026-05-04 18:18 57.99747 16.43974 37590 ft 483 kts 38°
2026-05-04 18:18 58.02242 16.48241 37320 ft 483 kts 38°
2026-05-04 18:18 58.04737 16.52515 36911 ft 484 kts 38°
2026-05-04 18:18 58.07226 16.56788 36390 ft 483 kts 38°
2026-05-04 18:19 58.12177 16.65317 35381 ft 480 kts 37°
2026-05-04 18:19 58.14644 16.69578 34823 ft 479 kts 37°
2026-05-04 18:19 58.17105 16.73836 34276 ft 479 kts 37°
2026-05-04 18:20 58.19567 16.78105 33736 ft 479 kts 37°
2026-05-04 18:20 58.22020 16.82366 33107 ft 478 kts 37°
2026-05-04 18:20 58.24476 16.86639 32487 ft 479 kts 37°
2026-05-04 18:20 58.26939 16.90931 31882 ft 482 kts 37°
2026-05-04 18:21 58.29413 16.95251 31291 ft 484 kts 37°
2026-05-04 18:21 58.31892 16.99588 30715 ft 485 kts 38°
2026-05-04 18:21 58.34373 17.03941 30156 ft 485 kts 38°
2026-05-04 18:21 58.36848 17.08296 29547 ft 483 kts 38°
2026-05-04 18:22 58.39270 17.12567 28914 ft 478 kts 38°
2026-05-04 18:22 58.41699 17.16858 28273 ft 473 kts 38°
2026-05-04 18:22 58.44100 17.21108 27594 ft 469 kts 38°
2026-05-04 18:22 58.46491 17.25344 26926 ft 466 kts 38°
2026-05-04 18:23 58.48857 17.29545 26289 ft 462 kts 37°
2026-05-04 18:23 58.51202 17.33714 25657 ft 459 kts 37°
2026-05-04 18:23 58.53526 17.37855 25043 ft 455 kts 37°
2026-05-04 18:23 58.55838 17.41982 24441 ft 452 kts 37°
2026-05-04 18:24 58.58125 17.46073 23845 ft 449 kts 37°
2026-05-04 18:24 58.60401 17.50150 23267 ft 446 kts 37°
2026-05-04 18:24 58.62660 17.54205 22568 ft 443 kts 37°
2026-05-04 18:24 58.64907 17.58243 21891 ft 440 kts 37°
2026-05-04 18:25 58.67134 17.62252 21230 ft 437 kts 38°
2026-05-04 18:25 58.69319 17.66192 20596 ft 435 kts 38°
2026-05-04 18:25 58.71512 17.70153 19964 ft 432 kts 38°
2026-05-04 18:25 58.73699 17.74106 19345 ft 429 kts 38°
2026-05-04 18:26 58.75865 17.78027 18730 ft 426 kts 38°
2026-05-04 18:26 58.78013 17.81921 18143 ft 423 kts 38°
2026-05-04 18:26 58.80152 17.85796 17484 ft 419 kts 37°
2026-05-04 18:26 58.82456 17.89127 16816 ft 409 kts 25°
2026-05-04 18:27 58.84952 17.91644 16163 ft 402 kts 20°
2026-05-04 18:27 58.87447 17.93987 15428 ft 395 kts 20°
2026-05-04 18:27 58.89889 17.96290 14699 ft 386 kts 20°
2026-05-04 18:27 58.92280 17.98550 14004 ft 379 kts 20°
2026-05-04 18:28 58.94689 18.00395 13271 ft 363 kts
2026-05-04 18:28 58.97139 18.01233 12502 ft 354 kts
2026-05-04 18:28 58.98740 18.01733 11989 ft 350 kts
2026-05-04 18:28 59.01129 18.02466 11251 ft 345 kts
2026-05-04 18:29 59.03486 18.03158 10525 ft 340 kts
2026-05-04 18:29 59.05822 18.03582 9818 ft 335 kts 358°
2026-05-04 18:29 59.08119 18.03868 9246 ft 325 kts 357°
2026-05-04 18:29 59.10334 18.04135 8833 ft 311 kts 357°
2026-05-04 18:30 59.14413 18.04652 8295 ft 279 kts 357°
2026-05-04 18:30 59.16356 18.04908 7967 ft 282 kts 357°
2026-05-04 18:30 59.18294 18.05145 7765 ft 274 kts 357°
2026-05-04 18:31 59.20216 18.05372 7722 ft 285 kts 357°
2026-05-04 18:31 59.22224 18.05586 7709 ft 288 kts 357°
2026-05-04 18:31 59.24221 18.05807 7722 ft 288 kts 357°
2026-05-04 18:31 59.26226 18.06026 7726 ft 289 kts 357°
2026-05-04 18:32 59.28230 18.06238 7708 ft 288 kts 357°
2026-05-04 18:32 59.30208 18.06443 7708 ft 288 kts 357°
2026-05-04 18:32 59.32207 18.06645 7720 ft 287 kts 357°
2026-05-04 18:32 59.34139 18.06838 7707 ft 288 kts 357°
2026-05-04 18:33 59.36142 18.07036 7457 ft 289 kts 357°
2026-05-04 18:33 59.38143 18.07230 7078 ft 286 kts 357°
2026-05-04 18:33 59.40116 18.07417 6799 ft 280 kts 357°
2026-05-04 18:33 59.42064 18.07599 6724 ft 282 kts 357°
2026-05-04 18:34 59.44028 18.07782 6718 ft 282 kts 357°
2026-05-04 18:34 59.45982 18.07965 6719 ft 281 kts 357°
2026-05-04 18:34 59.47934 18.08146 6715 ft 280 kts 357°
2026-05-04 18:34 59.49882 18.08320 6713 ft 281 kts 357°
2026-05-04 18:35 59.51835 18.08490 6693 ft 282 kts 357°
2026-05-04 18:35 59.53794 18.08661 6695 ft 281 kts 357°
2026-05-04 18:35 59.55746 18.08838 6691 ft 281 kts 357°
2026-05-04 18:35 59.57704 18.09015 6694 ft 281 kts 357°
2026-05-04 18:36 59.59658 18.09190 6692 ft 281 kts 357°
2026-05-04 18:36 59.61586 18.09356 6692 ft 281 kts 357°
2026-05-04 18:36 59.63547 18.09524 6567 ft 282 kts 358°
2026-05-04 18:36 59.65496 18.09689 6118 ft 278 kts 358°
2026-05-04 18:37 59.67417 18.09853 5597 ft 274 kts 357°
2026-05-04 18:37 59.69303 18.10117 5079 ft 271 kts
2026-05-04 18:37 59.71157 18.10604 4571 ft 266 kts
2026-05-04 18:37 59.72982 18.11109 4052 ft 263 kts
2026-05-04 18:38 59.74781 18.11601 3539 ft 260 kts
2026-05-04 18:38 59.76567 18.12089 3027 ft 258 kts
2026-05-04 18:38 59.78330 18.12577 2612 ft 251 kts
2026-05-04 18:38 59.80006 18.13069 2501 ft 234 kts
2026-05-04 18:39 59.81497 18.12932 2496 ft 199 kts 332°
2026-05-04 18:39 59.82475 18.11397 2536 ft 166 kts 297°
2026-05-04 18:39 59.82631 18.09233 2500 ft 164 kts 256°
2026-05-04 18:39 59.81969 18.07364 2504 ft 170 kts 229°
2026-05-04 18:40 59.81208 18.05608 2498 ft 166 kts 237°
2026-05-04 18:40 59.80524 18.03776 2501 ft 167 kts 237°
2026-05-04 18:40 59.79729 18.02083 2501 ft 173 kts 221°
2026-05-04 18:40 59.78623 18.01019 2503 ft 180 kts 204°
2026-05-04 18:41 59.77408 18.00437 2495 ft 174 kts 198°
2026-05-04 18:41 59.76269 18.00045 2431 ft 163 kts 199°
2026-05-04 18:41 59.75159 17.99630 2218 ft 160 kts 199°
2026-05-04 18:41 59.74078 17.99237 2010 ft 157 kts 199°
2026-05-04 18:42 59.73004 17.98843 1799 ft 157 kts 199°
2026-05-04 18:42 59.71929 17.98451 1582 ft 157 kts 198°
2026-05-04 18:42 59.70869 17.98065 1374 ft 156 kts 198°
2026-05-04 18:42 59.69837 17.97693 1163 ft 142 kts 198°
2026-05-04 18:43 59.68925 17.97364 966 ft 126 kts 198°
2026-05-04 18:43 59.68056 17.97038 789 ft 129 kts 195°
2026-05-04 18:43 59.67192 17.96728 621 ft 125 kts 196°
2026-05-04 18:43 59.66345 17.96400 418 ft 123 kts 196°
2026-05-04 18:44 59.65508 17.96106 271 ft 122 kts 194°
2026-05-04 18:44 59.64954 17.95923 164 ft 123 kts 194°
2026-05-04 18:44 59.63969 17.95548 111 ft 77 kts 192°
2026-05-04 18:44 59.63617 17.95429 117 ft 37 kts 188°
2026-05-04 18:45 59.63387 17.95269 119 ft 34 kts 214°
2026-05-04 18:45 59.63251 17.95031 122 ft 19 kts 250°
2026-05-04 18:45 59.63274 17.94917 123 ft 8 kts 340°